Regional Weather Roundup
Issued by NWS

Home | Current Version | Previous Version | Text Only | Print | Product List | Glossary Off
Versions: 1 2 3 4 5 6 7 8 9 10 11 12 13 14 15 16 17 18 19 20 21 22 23 24 25 26 27 28 29 30 31 32 33 34 35 36 37 38 39 40 41 42 43 44 45 46 47 48 49 50

754
ASUS43 KLSX 222307
RWRMO

WEATHER SUMMARY FOR MISSOURI
NATIONAL WEATHER SERVICE SPRINGFIELD MO
500 PM CST WED FEB 22 2017

NOTE: "FAIR" INDICATES FEW OR NO CLOUDS BELOW 12,000 FEET WITH NO
       SIGNIFICANT WEATHER AND/OR OBSTRUCTIONS TO VISIBILITY.
       CURRENT SKY AND/OR WEATHER CONDITIONS ARE NOT AVAILABLE FOR
       CHILLICOTHE AND FARMINGTON.

MOZ001>031-035>038-043-044-053-054-230000-
...NORTHERN AND WESTERN MISSOURI...

CITY           SKY/WX    TMP DP  RH WIND       PRES   REMARKS
KANSAS CTY INT PTSUNNY   77  35  21 W7        29.63S
KANSAS C DTWN  SUNNY     79  34  19 W5        29.61S
LEE`S SUMMIT   SUNNY     76  35  22 SW9       29.63F
ST JOSEPH      SUNNY     74  40  29 NW6       29.63S
CHILLICOTHE      N/A     77  36  22 SW8       29.62S
KIRKSVILLE     CLEAR     72  47  40 SW9       29.63F

$$
MOZ066>068-077>081-088>096-101>105-230000-
...SOUTHWEST MISSOURI...

CITY           SKY/WX    TMP DP  RH WIND       PRES   REMARKS
SPRINGFIELD    SUNNY     71  55  56 S13       29.70F
JOPLIN         SUNNY     76  41  28 SW10      29.70F
BRANSON        MOSUNNY   73  55  53 E8        29.74F

$$
MOZ032>034-039>042-045>050-055>058-069>072-230000-
...CENTRAL MISSOURI...

CITY           SKY/WX    TMP DP  RH WIND       PRES   REMARKS
COLUMBIA       CLEAR     67  55  65 S15       29.68F
JEFFERSON CITY PTCLDY    70  54  56 S8        29.69F
ROLLA          CLEAR     70  54  56 S14       29.70F
SEDALIA        SUNNY     76  45  33 SW16      29.66F
WHITEMAN AFB   MOSUNNY   74  43  32 SW17      29.64S
WARRENSBURG    SUNNY     73  41  31 S13G18    29.65S
OSAGE BEACH    CLEAR     72  53  51 S10       29.71S

$$
MOZ051-052-059>065-230000-
...EAST CENTRAL MISSOURI...

CITY           SKY/WX    TMP DP  RH WIND       PRES   REMARKS
ST LOUIS INTL  MOCLDY    72  56  57 CALM      29.71F
SPIRIT OF STL  MOCLDY    71  57  61 CALM      29.69F
ST CHARLES     PTCLDY    66  58  75 SE6       29.69F

$$
MOZ072>076-082>087-097>100-106>115-230000-
...SOUTH CENTRAL AND SOUTHEAST MISSOURI...

CITY           SKY/WX    TMP DP  RH WIND       PRES   REMARKS
CAPE GIRARDEAU CLEAR     67  57  70 SW13      29.79R
FARMINGTON     CLEAR     69  54  58 S14       29.76S
POPLAR BLUFF   CLEAR     68  58  70 SW8       29.78F
WEST PLAINS    CLEAR     64  55  72 SE10      29.78S

$$



USA.gov is the U.S. government's official web portal to all federal, state and local government web resources and services.